Location: Emory University Observatory
(33.7903°N, 84.3267°W)
Time: 05:56:27
(UTC-04:00)

Vanguard 1 Rocket - Visible Passes

Search period start: 23 October 2017 00:00
Search period end: 02 November 2017 00:00
Orbit: 655 x 4222 km, 34.3° (Epoch: 22 October)

Date Brightness Start Highest point End Pass type
(mag) Time Alt. Az. Time Alt. Az. Time Alt. Az.
23 Oct 11.2 03:20:41 12° SSE 03:23:08 13° SSE 03:28:16 10° SE visible
23 Oct 9.8 05:39:06 10° SW 05:51:45 36° SSE 05:58:54 10° E visible
24 Oct 10.4 04:32:04 19° S 04:39:27 27° SSE 04:47:34 10° E visible
24 Oct 8.8 06:54:46 10° SW 07:06:51 59° SSE 07:13:12 10° E visible
25 Oct 10.9 03:25:54 19° SSE 03:26:37 19° SSE 03:34:55 10° ESE visible
25 Oct 9.4 05:43:17 15° SW 05:55:07 46° SSE 06:02:41 10° E visible
26 Oct 10.1 04:36:59 28° S 04:42:50 36° SSE 04:51:42 10° E visible
26 Oct 8.6 06:57:24 10° WSW 07:10:10 71° SSE 07:16:42 10° E visible
27 Oct 10.6 03:30:33 27° SSE 03:30:33 27° SSE 03:39:51 10° E visible
27 Oct 9.2 05:47:54 21° SW 05:58:25 57° SSE 06:06:18 10° E visible
28 Oct 11.2 02:24:00 14° ESE 02:24:00 14° ESE 02:26:15 10° ESE visible
28 Oct 9.8 04:41:21 37° SSW 04:46:07 45° SSE 04:55:31 10° E visible
28 Oct 8.5 07:00:14 10° WSW 07:13:30 81° SSE 07:20:11 10° E visible
29 Oct 10.3 03:34:43 34° SE 03:34:43 34° SE 03:44:06 10° E visible
29 Oct 9.0 05:52:03 26° SW 06:01:42 68° SSE 06:09:48 10° E visible
30 Oct 11.0 02:27:59 18° ESE 02:27:59 18° ESE 02:31:30 10° E visible
30 Oct 9.6 04:45:19 46° SSW 04:49:20 55° SSE 04:59:09 10° E visible
30 Oct 8.5 07:03:11 10° WSW 07:16:51 88° S 07:23:40 10° E visible
31 Oct11.601:21:12E01:21:12E00:43:25Svisible
31 Oct 10.1 03:38:31 42° SE 03:38:31 42° SE 03:47:58 10° E visible
31 Oct 8.9 05:55:50 29° WSW 06:04:57 77° SSE 06:13:17 10° E visible
01 Nov 10.9 02:31:38 22° ESE 02:31:38 22° ESE 02:35:55 10° E visible
01 Nov 9.4 04:48:57 55° SSW 04:52:31 65° SSE 05:02:40 10° E visible
01 Nov 8.5 07:06:16 10° W 07:20:13 88° N 07:27:08 10° E visible
